sat.trackr.live / text

‹ back to catalog

STARLINK-32395

NORAD 61679 · 2024-193U

PAYLOAD ACTIVE UNKNOWN

§ Identity

Operator
Country
US
Launch date
2024-10-26
Launch site
AFETR
Launch vehicle
Mass (kg)
RCS (m²)

Purposes: comms

External: N2YO · Heavens-Above · Gunter

§ Orbital elements

Epoch: 2026-09-21T00:38:07.236096Z

Period
93.84 min
Inclination
53.1593°
Eccentricity
0.0001454
Mean motion
15.34448949 rev/d
Perigee alt
461.6 km
Apogee alt
463.6 km
Semi-major
6,840.7 km
B*
-4.4474e-4
RAAN
262.9712°
Arg perigee
145.1581°
Mean anomaly
214.9517°
Rev number
10,644

§ Raw data

STARLINK-323951 61679U 24193U   26264.02647264 -.00015396  00000+0 -44474-3 0  99902 61679  53.1593 262.9712 0001454 145.1581 214.9517 15.34448949106440

JSON: /api/v1/satellites/61679 · /tle

For live sub-satellite position, see the globe view (requires WebGL).

§ Visibility from observer

Set your observer location to see the next 7 days of passes ≥ 10°. The values pass through the URL so the page stays shareable.

No JS? Fill the form by hand. The geolocation button needs JavaScript.